Location: Trout Lake
(45.9980°N, 121.5270°W)
Time: 20:42:36
(UTC-08:00)

Cosmos 1420 Rocket - Pass Details

Date: 06 December 2023
Orbit: 753 x 778 km, 74.0° (Epoch: 22 February)

Event Time Altitude Azimuth Distance (km) Brightness Sun altitude
Rises 17:43:03 0° 180° (S) 3,213 7.5 -13.7°
Reaches altitude 10° 17:45:30 10° 173° (S) 2,296 6.6 -14.1°
Maximum altitude 17:50:24 43° 104° (ESE) 1,078 4.4 -14.9°
Enters shadow 17:53:46 19° 42° (NE) 1,771 5.4 -15.4°
